Theta_e
316 319 332 342 344 346 347 347 346 346 345 345 346 347 347 348 348 347 346 346 347 347 347 347 346 346 346 345 346 346 347 351 354 353 353 354 354 354 355 355 352 351 354
311 317 328 338 341 343 343 344 346 346 346 346 346 346 347 347 347 347 347 347 348 348 348 348 347 347 346 347 347 348 348 349 350 351 350 350 351 354 354 355 352 352 354
309 315 325 333 335 338 339 339 342 342 343 343 343 344 344 345 346 346 346 346 346 346 347 348 348 348 349 348 347 347 347 348 349 350 348 351 350 353 354 354 352 353 354
307 311 322 328 328 330 330 331 333 335 337 339 341 341 341 341 341 342 343 344 345 345 346 346 346 348 349 348 349 348 347 348 347 346 350 350 349 351 353 355 353 352 354
304 308 317 321 323 324 324 326 327 329 331 330 331 334 336 338 338 338 338 338 340 343 344 345 345 346 348 348 348 349 349 348 345 342 348 350 350 348 352 354 354 352 350
301 306 314 317 318 320 320 321 322 324 324 324 325 327 327 327 332 332 332 334 335 337 340 343 343 344 345 346 347 348 348 348 344 344 343 347 348 349 350 354 353 351 348
298 302 308 313 314 316 316 317 317 318 318 318 319 320 321 325 320 319 321 324 326 328 331 334 337 339 341 344 345 345 346 344 344 344 344 343 347 349 350 353 354 353 351
297 299 301 306 309 311 312 313 313 314 313 313 313 313 316 316 313 313 314 317 319 321 322 326 330 332 336 339 341 343 342 338 339 340 342 344 344 347 350 351 353 353 352
297 297 297 299 301 305 307 308 309 309 310 310 310 309 310 309 309 308 309 312 314 315 317 322 325 324 326 332 333 335 336 335 339 340 339 342 342 347 350 349 350 352 352
295 294 295 296 298 298 299 304 305 305 306 306 306 305 304 304 305 304 305 308 311 311 313 317 317 317 316 316 319 322 328 331 336 337 338 339 342 345 348 349 349 351 351
293 294 294 294 295 296 296 297 298 301 301 301 301 303 302 300 301 300 301 303 306 308 309 312 310 310 310 309 310 312 320 332 334 335 336 335 341 343 345 349 348 348 349
291 292 293 293 293 294 294 294 295 295 295 296 297 299 299 298 299 298 298 299 302 304 305 307 307 306 305 305 306 307 310 313 327 332 333 334 339 340 342 346 348 347 349
290 291 291 292 292 293 294 293 294 295 294 295 296 297 298 296 296 296 296 296 298 299 300 301 302 302 303 303 304 304 305 307 314 327 330 330 335 338 340 343 346 347 347
289 290 290 291 292 292 292 292 293 293 293 293 294 296 296 294 294 293 293 294 295 296 298 299 299 301 301 301 302 302 303 303 305 312 322 324 331 335 339 340 344 346 346
288 289 290 291 291 291 291 291 292 292 292 293 293 294 294 292 292 291 291 292 293 295 294 295 296 298 299 300 300 300 301 302 303 305 313 320 325 331 334 338 340 344 345
288 289 290 290 290 291 291 291 291 291 291 292 292 292 292 291 290 289 290 290 291 293 291 292 293 296 297 299 298 299 300 300 301 303 305 314 323 327 331 334 337 339 343
288 289 289 290 290 290 290 290 290 291 290 290 290 291 291 290 289 288 288 288 289 289 289 290 291 293 295 296 296 298 299 300 301 301 303 304 310 322 325 330 332 336 339
287 288 289 291 290 289 289 289 289 290 289 289 288 289 289 288 287 287 287 287 287 287 288 287 288 288 290 292 293 296 298 300 300 301 302 304 306 318 324 326 330 332 335
287 287 288 289 289 289 289 289 288 288 288 287 287 287 288 287 286 285 285 286 286 286 286 285 286 286 286 287 289 293 296 299 300 300 301 302 303 305 317 324 323 324 330
286 286 287 288 288 288 288 287 287 287 286 286 286 286 286 286 286 284 285 285 284 284 284 284 284 285 286 287 288 290 294 296 297 298 299 300 301 302 306 321 326 324 321
285 285 286 286 287 287 286 285 284 284 284 284 284 285 284 284 285 283 283 284 283 282 282 283 283 284 286 287 288 289 292 294 295 297 299 299 300 302 304 311 323 326 325
284 285 285 285 286 286 285 284 284 283 283 283 284 284 283 283 283 282 282 282 282 281 281 282 282 282 281 283 283 286 285 289 294 296 298 299 299 302 303 306 318 323 325
283 284 284 284 285 285 285 284 283 282 282 281 282 281 282 282 282 282 282 282 281 281 280 281 282 279 278 281 283 283 282 285 288 293 296 298 297 299 306 306 314 322 323
283 284 284 284 284 284 284 282 281 280 279 280 280 280 280 281 281 281 281 281 281 281 280 281 281 279 279 278 280 282 285 285 281 281 292 296 297 297 296 300 306 318 321
284 283 283 283 282 283 283 282 281 279 279 279 279 278 279 279 280 280 280 280 280 280 280 280 279 278 279 278 278 281 281 283 285 282 280 288 294 296 297 299 301 304 310
283 283 282 281 281 282 281 281 279 277 277 276 277 276 277 278 278 279 279 279 279 279 279 279 279 278 278 278 280 279 278 277 279 283 282 286 289 293 295 296 298 301 303
Wind_Speed
8 13 16 14 14 14 12 9 7 4 4 5 7 7 7 7 7 8 8 9 9 8 7 8 9 9 10 10 11 11 10 10 10 8 7 9 9 10 9 8 8 8 9
8 11 15 13 14 15 16 17 17 12 9 8 8 10 9 9 9 9 10 10 10 10 11 10 10 10 10 8 7 9 11 10 10 10 10 10 8 9 10 9 9 10 11
4 8 9 14 15 15 17 17 17 17 17 16 16 16 17 16 14 13 12 10 11 11 13 12 12 10 7 6 7 8 9 10 10 11 10 9 9 9 12 10 11 12 13
5 8 8 14 17 16 17 17 18 18 18 18 17 18 18 17 17 16 16 15 14 13 13 13 13 13 9 8 9 9 8 8 9 11 9 9 9 10 12 11 13 14 14
8 8 9 16 15 16 17 18 18 18 18 18 17 16 15 18 18 18 18 17 17 17 15 15 14 13 12 10 11 10 8 8 9 10 10 10 9 9 12 13 12 14 12
7 6 10 14 15 16 17 18 18 17 18 17 17 18 18 16 17 20 20 20 19 19 18 17 16 16 14 11 12 13 9 9 8 10 9 11 11 11 14 14 11 12 11
7 7 8 15 16 17 17 18 18 17 18 18 17 17 17 17 18 17 17 18 18 19 20 19 19 19 16 14 13 14 13 9 9 9 10 10 11 13 16 15 13 14 14
9 7 8 12 16 17 17 18 18 17 17 17 17 16 15 16 16 16 16 16 16 17 18 19 18 20 20 17 16 14 11 9 10 9 10 10 12 15 18 17 16 16 17
7 8 7 7 10 14 16 16 17 17 16 17 17 18 18 18 17 18 16 16 16 16 18 16 17 19 19 19 19 19 14 10 12 8 10 8 11 17 20 20 18 17 18
6 7 7 7 6 8 7 16 17 17 17 16 17 16 15 15 16 18 17 19 18 17 17 16 17 19 20 19 19 21 19 16 11 11 8 8 12 18 21 20 20 19 20
5 5 5 6 7 6 9 10 13 16 16 15 14 16 12 9 10 12 14 17 18 18 19 17 17 17 18 16 18 20 17 7 10 8 7 9 14 19 22 20 20 21 21
5 4 4 5 6 6 7 8 8 7 7 8 9 10 7 9 9 9 10 15 16 16 16 18 19 17 13 9 8 13 7 10 9 9 8 10 16 19 22 22 21 21 22
5 4 4 5 5 6 6 4 4 4 5 6 10 9 8 8 8 7 6 6 7 11 8 10 11 8 12 9 9 9 10 9 7 8 10 12 18 22 23 23 22 23 24
7 5 4 4 5 5 4 4 4 4 5 5 7 10 8 6 7 8 7 9 8 7 9 9 7 10 11 12 12 12 12 11 8 6 9 13 17 22 24 25 24 24 26
8 7 6 5 5 4 5 4 5 6 6 6 6 6 6 7 7 8 7 7 8 9 9 9 9 9 10 11 11 13 13 13 13 8 7 13 16 22 26 26 27 26 26
8 8 6 5 4 4 5 5 4 4 4 3 3 4 7 6 7 7 7 8 8 9 10 9 10 10 9 10 12 12 13 13 14 14 10 11 17 19 23 28 28 29 29
8 8 7 6 5 5 4 3 2 1 2 3 3 5 5 6 6 7 6 6 7 8 10 9 10 10 10 10 13 12 12 14 13 15 13 11 14 17 19 25 30 30 30
9 9 7 6 6 5 4 2 1 0 1 2 3 3 4 5 6 6 6 6 7 7 7 8 8 9 10 10 11 11 11 13 15 15 14 12 12 12 14 22 24 28 31
12 10 8 7 7 5 3 1 1 2 2 2 3 3 4 5 5 6 6 6 7 6 6 7 8 8 10 10 12 12 12 12 14 13 16 16 16 15 13 18 21 22 27
11 9 8 6 6 4 2 1 2 2 3 3 3 4 5 6 6 6 6 6 7 6 6 7 9 8 9 10 13 13 12 12 13 14 15 13 16 18 18 18 13 14 24
9 9 9 8 7 4 2 2 2 3 3 3 3 5 7 7 7 7 6 7 7 7 9 9 9 11 8 10 12 10 12 14 16 14 13 14 17 18 18 18 14 12 12
13 11 9 8 8 7 4 3 2 2 3 4 4 5 6 8 8 8 8 8 8 8 10 10 9 9 7 5 7 11 11 9 11 11 10 12 15 13 16 20 20 20 16
14 13 12 10 9 7 7 3 1 2 3 3 4 5 6 9 10 9 9 9 9 8 8 10 8 10 10 8 11 9 7 9 14 9 11 8 13 11 12 17 21 22 19
15 11 11 9 9 8 9 6 5 4 3 3 3 6 9 9 10 9 9 9 10 8 11 10 8 9 10 12 9 12 15 14 9 16 8 11 12 13 15 12 13 18 22
15 13 11 9 7 6 7 6 5 5 5 6 6 9 10 10 9 10 10 10 10 9 11 12 12 11 11 13 11 10 12 12 16 13 21 13 13 13 12 11 12 11 15
13 13 11 10 7 7 7 6 6 7 7 6 6 7 7 7 7 9 10 10 11 11 12 12 13 15 14 15 12 12 12 12 12 12 15 18 18 15 14 13 12 12 13
Wind_Direction
348 335 342 5 26 32 35 25 0 358 356 343 344 345 346 346 344 342 338 335 338 342 347 348 344 337 333 334 333 327 324 322 309 276 259 260 266 263 246 209 210 207 208
310 332 339 29 34 37 45 42 46 43 28 10 357 351 350 345 336 335 330 332 329 332 330 334 333 338 334 331 326 319 320 315 316 283 262 253 264 259 246 208 207 213 203
345 337 357 44 49 44 49 46 44 45 41 38 33 30 26 16 6 351 343 338 330 329 327 326 326 327 328 312 306 308 310 312 313 293 273 260 254 247 247 228 205 214 204
11 2 30 49 55 55 53 52 50 49 46 40 37 36 32 25 19 13 8 0 349 336 328 321 320 322 323 320 309 293 297 302 303 301 275 257 248 248 251 232 218 215 212
41 14 48 56 57 59 58 56 54 53 51 45 38 33 29 25 26 23 17 9 4 354 335 322 317 313 319 316 311 315 302 296 297 299 287 263 257 259 256 246 218 215 217
58 32 64 64 63 63 60 58 59 58 55 50 45 44 39 30 27 28 22 17 14 7 360 348 331 320 317 313 308 304 298 292 292 295 288 277 260 258 259 246 222 216 208
72 47 43 62 61 62 62 62 60 59 56 52 49 47 43 47 36 28 25 20 13 5 1 356 353 346 329 316 309 302 301 292 290 286 283 278 267 254 256 254 234 219 210
86 69 57 51 59 59 58 59 59 57 58 54 52 50 47 46 38 32 26 20 17 10 6 360 355 355 350 342 317 300 294 282 291 285 277 277 270 254 258 254 244 227 212
74 71 63 61 59 57 61 57 55 51 50 49 48 43 38 34 31 27 23 18 13 7 3 3 4 360 356 351 348 340 305 283 288 282 278 270 265 261 256 251 246 235 219
79 72 62 55 60 65 57 55 54 50 48 43 39 39 37 35 30 23 17 10 7 5 1 5 0 357 352 348 352 353 337 309 297 283 267 266 253 265 265 250 245 239 228
86 71 64 56 49 47 53 49 47 44 43 39 33 27 24 23 21 21 13 10 7 3 356 357 355 354 352 348 347 341 336 329 311 290 283 259 244 262 267 262 245 242 236
128 91 78 73 63 59 62 51 50 51 46 40 32 26 22 18 13 9 9 6 2 359 356 351 349 348 349 344 336 338 330 325 316 298 288 268 257 264 265 267 255 242 238
144 121 90 87 80 69 64 58 46 44 35 30 27 24 19 13 7 3 356 357 359 357 352 345 344 346 337 332 327 322 317 316 310 302 289 273 271 273 268 265 262 248 240
156 134 126 115 107 91 89 70 60 49 41 33 21 19 18 10 4 0 358 354 354 351 347 346 336 327 326 320 317 313 310 307 301 295 293 281 274 274 271 268 263 256 243
156 160 162 140 108 97 81 63 49 39 34 23 20 17 20 9 0 353 354 354 350 348 348 337 330 323 317 313 311 307 304 301 298 292 290 276 265 270 271 266 265 262 251
166 166 162 126 113 94 74 57 48 40 31 23 15 15 22 10 358 350 345 350 348 346 338 332 330 321 316 313 307 303 295 292 292 291 285 287 270 258 263 264 262 261 259
175 161 165 145 137 112 104 86 79 68 32 18 2 4 13 4 347 338 338 344 346 334 326 329 328 325 313 313 308 304 296 289 284 285 284 280 283 265 247 257 261 259 257
161 171 172 158 145 135 137 121 111 85 3 2 355 338 339 343 336 334 331 332 335 329 327 329 322 322 319 313 303 297 295 288 286 281 280 279 276 275 252 243 247 252 255
175 170 170 167 170 160 149 114 309 325 344 317 313 310 296 315 321 328 318 317 332 327 324 319 322 313 313 312 305 295 283 279 282 281 274 272 273 268 273 247 236 238 245
172 169 166 171 171 161 159 342 307 286 267 282 291 290 310 305 297 305 311 312 326 323 316 314 314 313 305 307 308 298 285 272 268 265 266 268 265 264 260 258 240 235 235
174 167 172 169 181 164 173 208 227 227 252 250 273 265 287 297 292 311 311 314 321 323 320 310 311 310 313 322 306 302 283 280 269 268 262 259 259 258 257 253 243 234 236
178 181 172 179 177 190 178 186 203 230 254 255 257 257 285 284 300 310 313 309 310 313 311 302 306 316 306 311 299 295 303 305 254 255 262 260 266 265 259 254 243 234 230
184 182 180 180 184 186 180 161 185 276 267 287 290 294 286 287 297 299 302 304 300 300 300 295 296 304 302 301 271 269 290 275 330 263 265 277 285 279 279 258 247 236 229
188 184 180 176 178 182 172 177 190 218 246 235 255 274 282 278 285 284 283 282 283 288 291 286 288 285 287 279 277 245 250 277 286 301 246 266 260 279 284 285 295 265 234
183 182 183 176 176 167 174 183 195 230 251 265 274 282 278 275 273 284 283 280 282 285 285 283 283 278 267 267 260 267 272 269 265 268 283 277 263 259 266 275 282 279 298
179 179 176 173 174 172 178 188 202 232 250 267 275 277 280 290 287 279 285 288 285 286 286 286 282 269 270 265 266 269 264 259 271 267 264 268 265 257 259 260 259 268 273